Home > Weather > Tours > Past weeks

Flag for France Weather for the Past 2 Weeks in Tours, France

Now
45 °F

Partly cloudy.


Feels Like: 40 °F
Forecast: 48 / 52 °F
Wind: 9 mph from Southwest

Location: Tours Airport

Current Time: Feb 7, 2016 at 7:06:14 AM

Latest Report: Feb 7, 2016 at 6:30 AM


Visibility: N/A

Pressure: 29.62 "Hg

Humidity: 87%

Dew point: 41 °F

Location of ToursLocation

Historic Weather in Tours — Graph

°F

Tours Temperature Yesterday

Maximum temperature yesterday: 59 °F (at 3:30 PM)
Minimum temperature yesterday: 41 °F (at 12:30 AM)
Average temperature yesterday: 51 °F

High & Low Weather Summary for the Past Weeks

 TemperatureHumidityPressure
High59 °F (Jan 25, 3:00 PM)100% (Jan 23, 6:00 AM)30.57 "Hg (Jan 23, 6:00 AM)
Low32 °F (Jan 29, 7:30 AM)51% (Feb 6, 3:30 PM)29.47 "Hg (Feb 7, 12:00 AM)
Average48 °F89%30.27 "Hg
* Reported Jan 23 6:00 AM — Feb 7 6:00 AM, Tours, Weather by CustomWeather, © 2016

Note: Actual official high and low records may vary slightly from our data, if they occured in-between our weather recording intervals... More about our weather records

Advertising

Tours Weather History for the Previous 24 Hours

 ConditionsComfort  
Time TempWeatherWind HumidityBarometerVisibility
6:00 AM
Sun, Feb 7
45 °FPassing clouds.12 mph81%29.59 "HgN/A
5:30 AM45 °FPartly cloudy.10 mph87%29.59 "HgN/A
5:00 AM46 °FLight rain. Partly cloudy.10 mph93%29.59 "HgN/A
4:30 AM46 °FPartly cloudy.9 mph87%29.56 "HgN/A
4:00 AM46 °FPartly cloudy.12 mph93%29.56 "HgN/A
3:30 AM46 °FMostly cloudy.12 mph93%29.53 "HgN/A
3:00 AM46 °FPartly cloudy.13 mph93%29.53 "HgN/A
2:30 AM46 °FRain. Partly cloudy.14 mph93%29.53 "HgN/A
2:00 AM48 °FLight rain. Partly cloudy.14 mph87%29.50 "HgN/A
1:30 AM48 °FLight rain. Overcast.12 mph87%29.50 "HgN/A
1:00 AM48 °FLight rain. Clear.16 mph94%29.50 "HgN/A
12:30 AM52 °FLight rain. Clear.20 mph82%29.47 "HgN/A
12:00 AM54 °FLight rain. Clear.21 mph67%29.47 "HgN/A
11:30 PM
Sat, Feb 6
54 °FLight rain. Passing clouds.20 mph67%29.50 "HgN/A
11:00 PM55 °FLight rain. Passing clouds.21 mph63%29.50 "HgN/A
10:00 PM55 °FClear.23 mph59%29.50 "Hg10 mi
9:30 PM55 °FClear.22 mph59%29.53 "Hg10 mi
9:00 PM55 °FClear.20 mph59%29.53 "Hg10 mi
8:30 PM55 °FClear.18 mph59%29.53 "Hg10 mi
8:00 PM55 °FClear.16 mph59%29.56 "Hg10 mi
7:30 PM55 °FClear.16 mph59%29.56 "Hg10 mi
7:00 PM55 °FClear.12 mph63%29.59 "Hg10 mi
6:30 PM55 °FClear.12 mph63%29.59 "Hg10 mi
6:00 PM55 °FSunny.10 mph63%29.59 "Hg10 mi
5:30 PM57 °FSunny.13 mph59%29.62 "Hg10 mi
5:00 PM57 °FSunny.17 mph55%29.62 "Hg10 mi
4:30 PM57 °FSunny.17 mph55%29.65 "Hg10 mi
4:00 PM59 °FSunny.17 mph55%29.65 "Hg10 mi
3:30 PM59 °FSunny.16 mph51%29.68 "Hg10 mi
3:00 PM57 °FSunny.16 mph55%29.71 "Hg10 mi
2:30 PM57 °FPassing clouds.18 mph55%29.74 "HgN/A
2:00 PM57 °FSunny.16 mph59%29.77 "Hg10 mi
1:30 PM55 °FSunny.18 mph63%29.83 "Hg10 mi
1:00 PM55 °FSunny.17 mph63%29.83 "Hg10 mi
12:30 PM54 °FSunny.18 mph72%29.86 "Hg10 mi
12:00 PM54 °FPassing clouds.17 mph72%29.89 "HgN/A
11:30 AM52 °FPassing clouds.16 mph77%29.92 "HgN/A
11:00 AM52 °FScattered clouds.16 mph82%29.92 "HgN/A
10:30 AM50 °FPartly sunny.16 mph88%29.92 "HgN/A
10:00 AM48 °FLow clouds.17 mph94%29.92 "HgN/A
9:30 AM48 °FMostly cloudy.14 mph94%29.95 "HgN/A
9:00 AM48 °FLow clouds.13 mph94%29.95 "HgN/A
8:30 AM48 °FLow clouds.12 mph94%29.95 "HgN/A
8:00 AM46 °FLow clouds.12 mph93%29.98 "HgN/A
7:30 AM46 °FMostly cloudy.10 mph93%29.98 "HgN/A
7:00 AM46 °FMostly cloudy.10 mph93%29.98 "HgN/A
Weather by CustomWeather, © 2016

See weather overviewHow to use our weather pages